Location: Unspecified
(0.0000°N, 0.0000°E)
Time: 00:48:58
(UTC+00:00)

deb Explorer IX - Pass Details

Date: 20 December 2018
Orbit: 538 x 1115 km, 38.8° (Epoch: 17 January)

Event Time Altitude Azimuth Distance (km) Brightness Sun altitude
Rises 14:07:44 0° 260° (W) 3,651 ? 50.7°
Reaches altitude 10° 14:11:33 10° 280° (W) 2,581 ? 49.9°
Maximum altitude 14:15:15 16° 317° (NW) 2,036 ? 49.2°
Drops below altitude 10° 14:18:38 10° 355° (N) 2,323 ? 48.5°
Sets 14:21:50 0° 17° (NNE) 3,124 ? 47.9°
